GW5433 Weather Reports


time (UTC)temp
C
wind
direction
speed
KPH
gust
KPH
rain 1hr
cm
rain 24hr
cm
rain mn
cm
humidity
%
barometer
mb
20260502163026 22 75 0.0 4.8 0.00 5.69 0.00 57 1020.8
20260502162507 22 75 0.0 4.8 0.00 6.15 0.00 58 1020.7
20260502162011 21 113 0.0 4.8 0.00 6.78 0.00 60 1020.8
20260502161520 21 61 0.0 4.8 0.00 7.77 0.00 60 1020.9
20260502161006 21 212 0.0 4.8 0.00 8.15 0.00 60 1020.8
20260502160509 21 161 0.0 4.8 0.00 8.15 0.00 60 1020.9
20260502152012 19 41 0.0 4.8 0.00 8.20 0.00 67 1020.7
20260502151527 19 117 0.0 4.8 0.00 8.20 0.00 69 1020.7
20260502151006 19 81 1.6 4.8 0.00 8.20 0.00 69 1020.7
20260502150507 18 214 0.0 3.2 0.00 8.20 0.00 69 1020.7
20260502130512 12 99 0.0 1.6 0.00 8.51 0.00 90 1019.4
20260502123514 12 272 0.0 3.2 0.00 8.53 0.00 92 1019.1
20260502123024 12 226 0.0 1.6 0.00 8.53 0.00 92 1018.9
20260502122512 11 210 0.0 1.6 0.00 8.53 0.00 92 1018.8
20260502122003 11 72 0.0 0.0 0.00 8.53 0.00 92 1018.6
20260502121510 11 98 0.0 4.8 0.00 8.53 0.00 92 1018.6
20260502121004 11 4 0.0 4.8 0.00 8.53 0.00 92 1018.6
20260502120506 11 3 0.0 1.6 0.00 8.56 0.00 92 1018.6
20260502115503 11 226 0.0 1.6 0.00 8.56 0.00 92 1018.5
20260502115006 11 226 0.0 1.6 0.00 8.56 0.00 92 1018.3
20260502114518 11 260 0.0 1.6 0.00 8.56 0.00 92 1018.3
20260502114007 11 231 0.0 1.6 0.00 8.56 0.00 92 1018.3
20260502113508 11 327 0.0 1.6 0.00 8.56 0.00 92 1018.2
20260502113023 11 253 0.0 4.8 0.00 8.56 0.00 92 1018.2
20260502112508 11 45 0.0 4.8 0.00 8.56 0.00 92 1018.0
20260502112011 11 235 0.0 0.0 0.00 8.56 0.00 92 1018.0
20260502111526 11 105 0.0 0.0 0.00 8.64 0.00 92 1017.9
20260502111011 11 56 0.0 0.0 0.00 8.66 0.00 91 1017.9
20260502110513 11 57 0.0 0.0 0.00 8.66 0.00 91 1018.1
20260502110012 11 56 0.0 0.0 0.00 8.66 0.00 91 1018.0
20260502105504 11 59 0.0 0.0 0.00 8.66 0.00 91 1018.0
20260502105005 11 59 0.0 0.0 0.00 8.66 0.00 90 1017.9
20260502104515 11 59 0.0 0.0 0.00 8.66 0.00 90 1017.8
20260502104008 11 59 0.0 0.0 0.00 8.66 0.00 90 1017.7
20260502103506 11 59 0.0 0.0 0.00 8.66 0.00 89 1017.5
20260502103048 11 59 0.0 0.0 0.00 8.66 0.00 89 1017.4
20260502102507 11 59 0.0 1.6 0.00 8.66 0.00 89 1017.3
20260502102007 11 59 0.0 1.6 0.00 8.66 0.00 89 1017.3
20260502101538 12 44 0.0 0.0 0.00 8.66 0.00 88 1017.1
20260502101007 12 249 0.0 1.6 0.00 8.66 0.00 88 1017.1
20260502100510 12 249 0.0 1.6 0.00 8.69 0.00 88 1016.9
20260502091523 12 293 0.0 0.0 0.00 8.71 0.00 89 1016.3
20260502091012 12 126 0.0 0.0 0.00 8.71 0.00 89 1016.3
20260502090507 12 34 0.0 0.0 0.00 8.71 0.00 89 1016.2
20260502071529 13 29 0.0 1.6 0.00 8.71 0.00 91 1016.2
20260502071004 13 21 0.0 1.6 0.00 8.71 0.00 91 1016.2
20260502070510 13 330 0.0 1.6 0.00 8.71 0.00 91 1016.2
20260502070022 13 205 0.0 6.4 0.00 8.74 0.00 91 1016.1
20260502065503 13 330 0.0 6.4 0.00 8.76 0.00 91 1016.1
20260502065005 13 34 0.0 3.2 0.00 8.79 0.00 91 1016.2
20260502064508 13 156 0.0 4.8 0.00 8.81 0.00 91 1016.1
20260502064004 13 211 0.0 4.8 0.00 8.84 0.00 91 1016.0
20260502063505 13 207 0.0 3.2 0.00 8.86 0.00 92 1016.0
20260502063008 13 248 0.0 1.6 0.00 8.89 0.00 92 1015.9
20260502062505 13 32 0.0 4.8 0.00 8.94 0.00 92 1015.9
20260502062005 13 18 0.0 4.8 0.00 9.07 0.00 92 1015.8
20260502061513 13 238 0.0 4.8 0.00 9.09 0.00 92 1015.8
20260502061004 13 40 0.0 3.2 0.00 9.17 0.00 92 1015.8
20260502060505 13 124 0.0 6.4 0.00 9.25 0.00 92 1015.8
20260502060018 13 188 0.0 6.4 0.00 9.37 0.00 93 1015.7
20260502055505 13 212 0.0 4.8 0.00 9.53 0.00 93 1015.7
20260502055008 13 75 0.0 4.8 0.00 9.60 0.00 93 1015.8
20260502054522 13 102 1.6 6.4 0.00 9.73 0.00 93 1015.5
20260502054002 13 15 0.0 6.4 0.00 9.91 0.00 93 1015.6
20260502053504 13 91 0.0 6.4 0.00 9.96 0.00 93 1015.7
20260502053008 13 65 0.0 1.6 0.00 10.08 0.00 93 1015.7
20260502052504 13 22 0.0 3.2 0.00 10.34 0.00 93 1015.7
20260502052004 13 316 0.0 3.2 0.00 10.41 0.00 93 1015.6
20260502051512 13 232 0.0 8.0 0.00 10.46 0.00 93 1015.8
20260502051003 13 95 0.0 8.0 0.00 11.02 0.00 93 1015.7
20260502050504 13 99 0.0 3.2 0.00 11.96 0.00 93 1015.8
20260502050014 13 249 0.0 3.2 0.00 12.14 0.00 94 1015.9
20260502045504 13 288 1.6 4.8 0.00 12.17 12.14 94 1015.8
20260502045006 13 215 0.0 4.8 0.00 12.17 12.14 94 1015.6
20260502044519 13 139 0.0 3.2 0.00 12.17 12.14 94 1015.5
20260502044008 13 231 0.0 1.6 0.00 12.17 12.14 94 1015.5
20260502043511 13 156 0.0 3.2 0.00 12.17 12.14 94 1015.5
20260502043028 13 81 0.0 3.2 0.00 12.17 12.14 94 1015.7
20260502042512 13 133 0.0 6.4 0.00 12.17 12.14 94 1015.7
20260502042004 13 236 0.0 6.4 0.00 12.17 12.14 94 1015.6
20260502041510 13 65 0.0 4.8 0.00 12.17 12.14 94 1015.5
20260502041004 13 274 0.0 1.6 0.00 12.17 12.14 94 1015.5
20260502040504 13 39 0.0 1.6 0.00 12.17 12.14 94 1015.6
20260502040011 13 174 0.0 1.6 0.00 12.17 12.14 94 1015.5
20260502035503 13 22 0.0 3.2 0.00 12.17 12.14 94 1015.4
20260502035004 13 279 0.0 3.2 0.00 12.17 12.14 94 1015.4
20260502034518 13 229 0.0 1.6 0.00 12.17 12.14 94 1015.4
20260502034005 13 242 0.0 3.2 0.00 12.17 12.14 94 1015.2
20260502033507 13 96 0.0 3.2 0.00 12.17 12.14 94 1015.2
20260502033024 13 231 0.0 6.4 0.00 12.17 12.14 94 1015.1
20260502032509 13 160 0.0 6.4 0.00 12.17 12.14 94 1014.9
20260502032008 13 78 0.0 4.8 0.00 12.19 12.14 94 1014.8
20260502031524 13 153 0.0 4.8 0.03 12.19 12.14 94 1014.7
20260502031010 13 258 0.0 6.4 0.03 12.22 12.14 94 1014.6
20260502030504 13 136 0.0 6.4 0.03 12.22 12.14 94 1014.8
20260502030008 13 77 0.0 6.4 0.05 12.24 12.14 94 1014.3
20260502025502 13 18 0.0 4.8 0.05 12.27 12.14 94 1013.8
20260502025003 14 265 0.0 8.0 0.08 12.27 12.14 94 1013.9
20260502024514 14 244 0.0 8.0 0.08 12.32 12.14 95 1013.8
20260502024010 14 20 1.6 8.0 0.10 12.37 12.14 95 1013.7
20260502023506 14 132 0.0 1.6 0.13 12.40 12.14 95 1013.7
20260502023020 14 153 0.0 0.0 0.15 12.40 12.14 95 1013.6
20260502022505 14 159 0.0 0.0 0.15 12.40 12.14 95 1013.5
20260502022004 14 40 0.0 0.0 0.15 12.42 12.14 95 1013.6
20260502021522 14 254 0.0 0.0 0.15 12.40 12.12 95 1013.6
20260502021008 14 61 0.0 0.0 0.15 12.40 12.12 95 1013.7
20260502020510 14 143 0.0 4.8 0.18 12.40 12.12 95 1013.7
20260502020028 14 257 0.0 4.8 0.18 12.37 12.09 95 1013.8
20260502015510 15 2 0.0 1.6 0.20 12.37 12.09 95 1013.7
20260502015007 15 148 0.0 0.0 0.18 12.34 12.06 95 1013.8
20260502014510 15 302 0.0 1.6 0.18 12.34 12.06 95 1013.7
20260502014003 15 100 0.0 3.2 0.15 12.32 12.01 95 1013.5
20260502013505 15 103 0.0 3.2 0.13 12.29 12.01 95 1013.3
20260502013017 15 317 0.0 1.6 0.13 12.27 11.96 95 1013.4
20260502012507 15 274 0.0 1.6 0.13 12.27 11.96 95 1013.5
20260502012008 15 108 0.0 1.6 0.13 12.27 11.96 95 1013.1
20260502011522 15 162 0.0 3.2 0.10 12.24 11.96 95 1012.8
20260502011008 15 261 0.0 4.8 0.13 12.24 11.96 95 1012.6
20260502010504 15 45 0.0 4.8 0.15 12.22 11.91 95 1012.7
20260502010026 15 106 0.0 4.8 0.30 12.19 11.91 95 1012.7
20260502005513 15 219 0.0 4.8 0.48 12.17 11.86 95 1012.8
20260502005010 15 121 0.0 0.0 0.64 12.17 11.86 95 1012.7
20260502004526 15 248 0.0 3.2 0.74 12.17 11.86 95 1012.5
20260502004009 15 85 0.0 4.8 0.79 12.17 11.86 94 1012.1
20260502003509 15 276 0.0 8.0 0.79 12.17 11.86 94 1011.8
20260502003014 15 259 0.0 8.0 0.79 12.14 11.86 94 1011.5
20260502002506 15 288 0.0 8.0 0.84 12.14 11.86 94 1011.3
20260502002008 15 331 0.0 4.8 0.91 12.14 11.86 95 1011.5
20260502001519 15 96 0.0 4.8 0.97 12.14 11.86 94 1011.8
20260502001008 15 148 0.0 3.2 0.99 12.12 11.84 94 1011.8
20260502000509 15 107 0.0 4.8 0.99 12.06 11.79 94 1011.7
20260502000024 15 236 0.0 6.4 0.86 11.86 11.61 94 1011.7
20260501235511 15 137 0.0 6.4 0.84 11.68 11.38 95 1011.9
20260501235011 15 264 0.0 3.2 0.81 11.53 11.23 95 1011.8
20260501234531 15 158 0.0 9.7 0.74 11.43 11.15 94 1011.5
20260501234010 15 258 0.0 9.7 0.69 11.38 11.10 94 1010.7
20260501233510 15 230 0.0 4.8 0.69 11.38 11.10 94 1010.6
20260501233027 15 329 0.0 4.8 0.66 11.33 11.07 94 1009.7
20260501232513 16 157 0.0 3.2 0.61 11.28 11.02 95 1010.0
20260501232010 16 2 0.0 3.2 0.53 11.23 10.95 95 1010.7
20260501231516 16 113 0.0 3.2 0.48 11.18 10.90 94 1010.7
20260501231003 16 176 0.0 4.8 0.43 11.13 10.85 94 1010.6
20260501230509 16 41 0.0 4.8 0.38 11.07 10.79 94 1010.5
20260501230020 16 84 0.0 3.2 0.33 11.02 10.74 94 1010.1
20260501225505 16 304 0.0 0.0 0.15 10.85 10.57 94 1010.3
20260501225007 16 57 0.0 3.2 0.05 10.69 10.44 94 1010.5
20260501224527 16 57 0.0 3.2 0.08 10.69 10.41 94 1010.6
20260501224010 16 25 0.0 6.4 0.08 10.69 10.41 94 1010.4
20260501223506 16 183 1.6 6.4 0.10 10.69 10.41 94 1010.6
20260501223036 16 113 0.0 4.8 0.10 10.69 10.41 95 1010.5
20260501222511 16 37 0.0 4.8 0.10 10.69 10.41 94 1010.3
20260501222014 16 352 0.0 4.8 0.10 10.69 10.41 95 1010.2
20260501221531 16 52 0.0 4.8 0.10 10.69 10.41 95 1010.0
20260501221012 16 283 0.0 4.8 0.10 10.69 10.41 95 1010.3
20260501220511 16 349 0.0 3.2 0.10 10.69 10.41 95 1010.6
20260501220014 16 138 0.0 3.2 0.13 10.69 10.41 95 1010.7
20260501215507 16 169 0.0 3.2 0.15 10.69 10.41 95 1010.4
20260501215008 16 191 0.0 4.8 0.20 10.64 10.39 95 1010.6
20260501214530 16 55 0.0 4.8 0.18 10.59 10.34 95 1010.4
20260501214009 16 241 0.0 1.6 0.23 10.59 10.34 95 1010.8
20260501213507 16 251 0.0 1.6 0.25 10.59 10.31 95 1011.3
20260501213023 16 151 0.0 1.6 0.28 10.59 10.31 95 1010.9
20260501212508 16 98 0.0 1.6 0.30 10.59 10.31 95 1010.6
20260501212009 16 235 0.0 0.0 0.36 10.59 10.31 95 1010.6
20260501211528 16 355 0.0 1.6 0.38 10.59 10.31 95 1010.4
20260501211013 16 236 0.0 1.6 0.43 10.59 10.31 95 1010.3
20260501210509 16 245 0.0 0.0 0.48 10.59 10.31 95 1009.9
20260501210036 16 328 0.0 0.0 0.46 10.57 10.29 95 1010.0
20260501205507 16 328 0.0 3.2 0.46 10.54 10.26 95 1009.7
20260501205007 16 248 0.0 3.2 0.38 10.46 10.19 95 1009.9
20260501204522 16 64 0.0 3.2 0.41 10.44 10.16 95 1009.3
20260501204008 16 283 0.0 4.8 0.56 10.39 10.11 95 1009.4
20260501203508 16 195 0.0 4.8 0.81 10.34 10.06 95 1009.1
20260501203028 17 82 0.0 6.4 1.09 10.31 10.03 95 1009.4
20260501202505 17 217 0.0 6.4 1.70 10.29 10.01 95 1009.1
20260501202011 17 124 0.0 0.0 2.13 10.24 9.96 95 1009.1
20260501201529 17 75 0.0 3.2 2.18 10.21 9.93 95 1009.5
20260501201019 16 360 0.0 3.2 2.21 10.16 9.88 95 1009.2
20260501200504 16 79 0.0 3.2 2.21 10.11 9.83 95 1009.5
20260501200014 17 147 0.0 3.2 2.24 10.11 9.83 95 1009.1
20260501195503 17 94 0.0 3.2 2.24 10.08 9.80 95 1009.1
20260501195003 17 192 0.0 1.6 2.26 10.08 9.80 95 1009.3
20260501194526 17 282 0.0 4.8 2.26 10.03 9.75 95 1009.2
20260501194005 17 237 0.0 4.8 2.13 9.83 9.55 95 1009.1
20260501193508 17 297 0.0 3.2 1.91 9.53 9.25 95 1009.5
20260501193020 17 275 0.0 3.2 1.68 9.22 8.94 95 1009.0
20260501192508 17 70 0.0 3.2 1.04 8.59 8.31 95 1008.7
20260501192009 17 253 0.0 3.2 0.58 8.10 7.82 95 1009.6
20260501191524 17 291 0.0 3.2 0.58 8.03 7.75 95 1009.4
20260501191004 17 264 0.0 3.2 0.58 7.95 7.67 95 1008.8
20260501190504 17 302 0.0 3.2 0.71 7.90 7.62 95 1008.7
20260501190010 17 12 0.0 1.6 0.76 7.87 7.59 95 1008.8
20260501185504 17 295 0.0 3.2 0.74 7.85 7.57 95 1008.9
20260501185004 17 4 0.0 4.8 0.71 7.82 7.54 94 1008.3
20260501184513 17 329 0.0 4.8 0.69 7.77 7.49 95 1008.8
20260501184003 17 351 0.0 4.8 0.61 7.70 7.42 95 1008.8
20260501183507 17 267 0.0 8.0 0.58 7.62 7.34 95 1010.0
20260501183017 17 330 0.0 8.0 0.51 7.54 7.26 95 1011.3
20260501182509 17 266 0.0 4.8 0.51 7.54 7.26 95 1010.7
20260501182009 17 59 0.0 9.7 0.48 7.52 7.24 95 1009.5
20260501181523 17 259 0.0 9.7 0.41 7.44 7.16 95 1008.8
20260501181010 17 44 0.0 3.2 0.36 7.37 7.09 95 1008.9
20260501180510 17 158 0.0 1.6 0.23 7.19 6.91 95 1010.3
20260501180033 17 94 0.0 1.6 0.23 7.11 6.83 94 1010.9
20260501175504 17 12 0.0 1.6 0.23 7.11 6.83 94 1010.8
20260501175002 17 298 0.0 1.6 0.23 7.11 6.83 95 1010.2
20260501174507 17 61 0.0 3.2 0.20 7.09 6.81 94 1010.0
20260501174003 17 62 0.0 3.2 0.25 7.09 6.81 94 1010.1
20260501173503 17 212 0.0 0.0 0.23 7.04 6.76 95 1010.4
20260501173016 17 222 0.0 1.6 0.30 7.04 6.76 94 1010.4
20260501172503 17 19 0.0 4.8 0.79 7.04 6.76 94 1010.0
20260501172015 17 138 0.0 6.4 1.45 7.04 6.76 94 1009.8
20260501171518 17 161 0.0 6.4 2.39 7.04 6.76 94 1010.2
20260501171007 17 72 0.0 3.2 2.74 7.01 6.73 94 1010.1
20260501170508 17 88 0.0 3.2 2.67 6.96 6.68 94 1010.6
20260501170029 17 139 0.0 6.4 2.62 6.88 6.60 94 1010.9
20260501165509 17 311 0.0 6.4 2.64 6.88 6.60 94 1011.3
20260501165015 17 261 0.0 1.6 2.64 6.88 6.60 94 1010.9
20260501164526 17 195 0.0 1.6 2.64 6.88 6.60 94 1010.8
20260501164003 17 234 0.0 1.6 2.62 6.83 6.55 94 1010.7
20260501163504 17 22 0.0 1.6 2.59 6.81 6.53 94 1011.6